,,Stat6,,Stat2,,Stat8,,Stat9,,Stat10,,Wind1,,Wind1,
time,status,PA1M_AVG,status,PR1M_SUM,status,RH1M_AVG,status,SR1M_AVG,status,TA1M_AVG,status,W1dAve1m,status,W1sAve1m,
2003-11-14, 00:00:01,VALID,917.806,VALID,0,VALID,97.8144,VALID,-0.101885,VALID,20.5967,VALID,99,VALID,0.389137,
2003-11-14, 00:01:00,VALID,917.791,VALID,0,VALID,97.8665,VALID,-0.101885,VALID,20.587,VALID,99,VALID,0.328869,
2003-11-14, 00:02:00,VALID,917.782,VALID,0,VALID,97.9339,VALID,-0.0849042,VALID,20.587,VALID,99,VALID,0.231326,
2003-11-14, 00:03:00,VALID,917.78,VALID,0,VALID,97.9174,VALID,-0.0679233,VALID,20.5905,VALID,99,VALID,0.0497159,
2003-11-14, 00:04:00,VALID,917.784,VALID,0,VALID,97.7749,VALID,-0.101885,VALID,20.5773,VALID,99,VALID,0.151414,
2003-11-14, 00:05:00,VALID,917.796,VALID,0,VALID,97.6986,VALID,-0.101885,VALID,20.5679,VALID,99,VALID,0.225419,
2003-11-14, 00:06:00,VALID,917.79,VALID,0,VALID,97.6974,VALID,-0.0509425,VALID,20.5482,VALID,99,VALID,0.207317,
2003-11-14, 00:07:00,VALID,917.802,VALID,0,VALID,97.8042,VALID,-0.101885,VALID,20.5455,VALID,96,VALID,0.268043,
2003-11-14, 00:08:00,VALID,917.813,VALID,0,VALID,97.8805,VALID,-0.0849042,VALID,20.5584,VALID,79,VALID,0.367188,
2003-11-14, 00:09:00,VALID,917.811,VALID,0,VALID,97.7762,VALID,-0.0849042,VALID,20.5552,VALID,74,VALID,0.298874,
2003-11-14, 00:10:00,VALID,917.806,VALID,0,VALID,97.705,VALID,-0.101885,VALID,20.5261,VALID,74,VALID,0.122569,
2003-11-14, 00:11:00,VALID,917.79,VALID,0,VALID,97.7495,VALID,-0.0849042,VALID,20.5165,VALID,74,VALID,0.00990854,
2003-11-14, 00:12:00,VALID,917.773,VALID,0,VALID,97.8309,VALID,-0.0509425,VALID,20.5159,VALID,74,VALID,0,
2003-11-14, 00:13:00,VALID,917.74,VALID,0,VALID,97.7889,VALID,-0.101885,VALID,20.5229,VALID,74,VALID,0,
2003-11-14, 00:14:00,VALID,917.726,VALID,0,VALID,97.7966,VALID,-0.101885,VALID,20.5261,VALID,74,VALID,0,
2003-11-14, 00:15:00,VALID,917.696,VALID,0,VALID,97.8195,VALID,-0.101885,VALID,20.5289,VALID,74,VALID,0,
2003-11-14, 00:16:00,VALID,917.676,VALID,0,VALID,97.7673,VALID,-0.0509425,VALID,20.5323,VALID,74,VALID,0,
2003-11-14, 00:17:00,VALID,917.663,VALID,0,VALID,97.6999,VALID,-0.101885,VALID,20.5194,VALID,74,VALID,0,
2003-11-14, 00:18:00,VALID,917.652,VALID,0,VALID,97.8551,VALID,-0.101885,VALID,20.5323,VALID,74,VALID,0,
2003-11-14, 00:19:00,VALID,917.64,VALID,0,VALID,97.9275,VALID,-0.0679233,VALID,20.555,VALID,74,VALID,0.090298,
2003-11-14, 00:20:00,VALID,917.627,VALID,0,VALID,97.8131,VALID,-0.0679233,VALID,20.5512,VALID,66,VALID,0.310417,
2003-11-14, 00:21:00,VALID,917.63,VALID,0,VALID,97.663,VALID,0,VALID,20.548,VALID,56,VALID,0.223722,
2003-11-14, 00:22:00,VALID,917.626,VALID,0,VALID,97.658,VALID,-0.0169808,VALID,20.5348,VALID,51,VALID,0.26726,
2003-11-14, 00:23:00,VALID,917.619,VALID,0,VALID,97.5575,VALID,0,VALID,20.5353,VALID,51,VALID,0.25186,
2003-11-14, 00:24:00,VALID,917.616,VALID,0,VALID,97.4812,VALID,0.0169808,VALID,20.5189,VALID,37,VALID,0.45258,
2003-11-14, 00:25:01,VALID,917.604,VALID,0,VALID,97.4227,VALID,-0.0509425,VALID,20.506,VALID,28,VALID,0.349702,
2003-11-14, 00:26:00,VALID,917.582,VALID,0,VALID,97.5092,VALID,0,VALID,20.4993,VALID,28,VALID,0.186632,
2003-11-14, 00:27:00,VALID,917.566,VALID,0,VALID,97.5499,VALID,0,VALID,20.5157,VALID,28,VALID,0.193859,
2003-11-14, 00:28:01,VALID,917.558,VALID,0,VALID,97.4736,VALID,0,VALID,20.5189,VALID,28,VALID,0.324777,
2003-11-14, 00:29:00,VALID,917.555,VALID,0,VALID,97.4774,VALID,0,VALID,20.5259,VALID,28,VALID,0.296503,
2003-11-14, 00:30:01,VALID,917.555,VALID,0,VALID,97.4736,VALID,-0.0509425,VALID,20.5259,VALID,28,VALID,0.321766,
2003-11-14, 00:31:00,VALID,917.558,VALID,0,VALID,97.4494,VALID,0,VALID,20.5291,VALID,28,VALID,0.176136,
2003-11-14, 00:32:00,VALID,917.557,VALID,0,VALID,97.4316,VALID,-0.0169808,VALID,20.5157,VALID,28,VALID,0.2125,
2003-11-14, 00:33:01,VALID,917.567,VALID,0,VALID,97.2536,VALID,-0.0169808,VALID,20.5135,VALID,28,VALID,0.387251,
2003-11-14, 00:34:00,VALID,917.562,VALID,0,VALID,97.3121,VALID,0,VALID,20.4901,VALID,28,VALID,0.265807,
2003-11-14, 00:35:01,VALID,917.568,VALID,0,VALID,97.2777,VALID,-0.0169808,VALID,20.4998,VALID,28,VALID,0.282465,
2003-11-14, 00:36:01,VALID,917.555,VALID,0,VALID,97.246,VALID,-0.0339617,VALID,20.4963,VALID,28,VALID,0.32207,
2003-11-14, 00:37:00,VALID,917.546,VALID,0,VALID,97.2243,VALID,0,VALID,20.5033,VALID,28,VALID,0.276563,
2003-11-14, 00:38:00,VALID,917.532,VALID,0,VALID,97.0044,VALID,-0.0339617,VALID,20.4933,VALID,9,VALID,0.600654,
2003-11-14, 00:39:00,VALID,917.516,VALID,0,VALID,96.7971,VALID,-0.0169808,VALID,20.4801,VALID,13,VALID,0.362866,
2003-11-14, 00:40:00,VALID,917.499,VALID,0,VALID,96.7958,VALID,-0.0169808,VALID,20.4732,VALID,13,VALID,0.226744,
2003-11-14, 00:41:00,VALID,917.493,VALID,0,VALID,96.7945,VALID,0,VALID,20.4702,VALID,13,VALID,0.255952,
2003-11-14, 00:42:00,VALID,917.479,VALID,0,VALID,96.8746,VALID,-0.0169808,VALID,20.4767,VALID,13,VALID,0.373437,
2003-11-14, 00:43:00,VALID,917.456,VALID,0,VALID,96.9293,VALID,0,VALID,20.4672,VALID,13,VALID,0.380035,
2003-11-14, 00:44:00,VALID,917.432,VALID,0,VALID,97.0183,VALID,0,VALID,20.4767,VALID,13,VALID,0.377841,
2003-11-14, 00:45:00,VALID,917.42,VALID,0,VALID,97.1201,VALID,0,VALID,20.4839,VALID,13,VALID,0.127734,
2003-11-14, 00:46:01,VALID,917.401,VALID,0,VALID,97.1786,VALID,0.0169808,VALID,20.4993,VALID,13,VALID,0.205556,
2003-11-14, 00:47:01,VALID,917.397,VALID,0,VALID,97.0959,VALID,0,VALID,20.4963,VALID,13,VALID,0.0751488,
2003-11-14, 00:48:00,VALID,917.386,VALID,0,VALID,97.0883,VALID,0,VALID,20.4928,VALID,13,VALID,0.00181686,
2003-11-14, 00:49:01,VALID,917.361,VALID,0,VALID,97.0412,VALID,-0.0169808,VALID,20.471,VALID,13,VALID,0.0255859,
2003-11-14, 00:50:00,VALID,917.357,VALID,0,VALID,97.1709,VALID,0,VALID,20.4481,VALID,13,VALID,0.291349,
2003-11-14, 00:51:00,VALID,917.358,VALID,0,VALID,97.3935,VALID,-0.0169808,VALID,20.4416,VALID,13,VALID,0.205543,
2003-11-14, 00:52:01,VALID,917.34,VALID,0,VALID,97.5041,VALID,0,VALID,20.4384,VALID,6,VALID,0.363839,
2003-11-14, 00:53:00,VALID,917.337,VALID,0,VALID,97.6402,VALID,-0.0169808,VALID,20.4381,VALID,25,VALID,0.713246,
2003-11-14, 00:54:01,VALID,917.325,VALID,0,VALID,97.4583,VALID,0,VALID,20.4384,VALID,27,VALID,1.1032,
2003-11-14, 00:55:01,VALID,917.317,VALID,0,VALID,97.0298,VALID,-0.0169808,VALID,20.4093,VALID,27,VALID,1.50286,
2003-11-14, 00:56:00,VALID,917.323,VALID,0,VALID,96.8162,VALID,0,VALID,20.3962,VALID,19,VALID,1.06214,
2003-11-14, 00:57:00,VALID,917.313,VALID,0,VALID,96.5682,VALID,-0.0169808,VALID,20.4061,VALID,13,VALID,1.34629,
2003-11-14, 00:58:00,VALID,917.315,VALID,0,VALID,96.1219,VALID,0,VALID,20.4064,VALID,15,VALID,1.16815,
2003-11-14, 00:59:01,VALID,917.315,VALID,0,VALID,96.2236,VALID,-0.0339617,VALID,20.4285,VALID,12,VALID,0.793501,
2003-11-14, 01:00:00,VALID,917.293,VALID,0,VALID,96.263,VALID,-0.0339617,VALID,20.4257,VALID,11,VALID,0.422053,
2003-11-14, 01:01:00,VALID,917.285,VALID,0,VALID,96.3368,VALID,-0.0169808,VALID,20.4322,VALID,10,VALID,0.583984,
2003-11-14, 01:02:00,VALID,917.269,VALID,0,VALID,96.4372,VALID,0.0339617,VALID,20.4061,VALID,6,VALID,0.434152,
2003-11-14, 01:03:00,VALID,917.264,VALID,0,VALID,96.4766,VALID,-0.0339617,VALID,20.4064,VALID,6,VALID,0.337054,
2003-11-14, 01:04:01,VALID,917.24,VALID,0,VALID,96.366,VALID,0,VALID,20.3929,VALID,6,VALID,0.363368,
2003-11-14, 01:05:00,VALID,917.226,VALID,0,VALID,96.3253,VALID,-0.0339617,VALID,20.383,VALID,358,VALID,0.583097,
2003-11-14, 01:06:00,VALID,917.228,VALID,0,VALID,96.2846,VALID,-0.0169808,VALID,20.3703,VALID,323,VALID,0.302257,
2003-11-14, 01:07:00,VALID,917.219,VALID,0,VALID,96.5835,VALID,0,VALID,20.3574,VALID,321,VALID,0.476385,
2003-11-14, 01:08:00,VALID,917.214,VALID,0,VALID,97.0272,VALID,0,VALID,20.3571,VALID,322,VALID,0.172965,
2003-11-14, 01:09:01,VALID,917.212,VALID,0,VALID,97.2994,VALID,-0.0169808,VALID,20.3571,VALID,357,VALID,0.450107,
2003-11-14, 01:10:00,VALID,917.213,VALID,0,VALID,97.3896,VALID,0,VALID,20.3676,VALID,5,VALID,0.261009,
2003-11-14, 01:11:00,VALID,917.22,VALID,0,VALID,97.3566,VALID,0,VALID,20.3735,VALID,5,VALID,0.375347,
2003-11-14, 01:12:00,VALID,917.231,VALID,0,VALID,97.2905,VALID,0,VALID,20.3646,VALID,360,VALID,0.38559,
2003-11-14, 01:13:00,VALID,917.214,VALID,0,VALID,97.4164,VALID,-0.0169808,VALID,20.3611,VALID,359,VALID,0.0980114,
2003-11-14, 01:14:00,VALID,917.212,VALID,0,VALID,97.5219,VALID,0,VALID,20.3512,VALID,359,VALID,0,
2003-11-14, 01:15:01,VALID,917.213,VALID,0,VALID,97.5867,VALID,0,VALID,20.3641,VALID,359,VALID,0.0386905,
2003-11-14, 01:16:00,VALID,917.212,VALID,0,VALID,97.6007,VALID,0,VALID,20.3571,VALID,336,VALID,0.239583,
2003-11-14, 01:17:00,VALID,917.205,VALID,0,VALID,97.5155,VALID,-0.0339617,VALID,20.3711,VALID,315,VALID,0.0454215,
2003-11-14, 01:18:00,VALID,917.208,VALID,0,VALID,97.4405,VALID,-0.0169808,VALID,20.3646,VALID,16,VALID,0.445313,
2003-11-14, 01:19:01,VALID,917.224,VALID,0,VALID,97.4736,VALID,-0.0339617,VALID,20.39,VALID,16,VALID,0.0788517,
2003-11-14, 01:20:00,VALID,917.223,VALID,0,VALID,97.3871,VALID,-0.0339617,VALID,20.4101,VALID,8,VALID,0.24657,
2003-11-14, 01:21:01,VALID,917.217,VALID,0,VALID,97.3439,VALID,-0.0679233,VALID,20.3867,VALID,7,VALID,0.178234,
2003-11-14, 01:22:01,VALID,917.219,VALID,0,VALID,97.3998,VALID,-0.0679233,VALID,20.3837,VALID,7,VALID,0.0228795,
2003-11-14, 01:23:00,VALID,917.213,VALID,0,VALID,97.4876,VALID,-0.101885,VALID,20.3743,VALID,320,VALID,0.127046,
2003-11-14, 01:24:00,VALID,917.201,VALID,0,VALID,97.5422,VALID,-0.0169808,VALID,20.3644,VALID,268,VALID,0.0905107,
2003-11-14, 01:25:01,VALID,917.189,VALID,0,VALID,97.5181,VALID,-0.0849042,VALID,20.3587,VALID,268,VALID,0.101181,
2003-11-14, 01:26:00,VALID,917.187,VALID,0,VALID,97.3973,VALID,-0.118866,VALID,20.3229,VALID,273,VALID,0.14169,
2003-11-14, 01:27:00,VALID,917.171,VALID,0,VALID,97.2803,VALID,-0.101885,VALID,20.3199,VALID,294,VALID,0.399528,
2003-11-14, 01:28:00,VALID,917.163,VALID,0,VALID,97.4189,VALID,-0.101885,VALID,20.3095,VALID,294,VALID,0.0924782,
2003-11-14, 01:29:00,VALID,917.132,VALID,0,VALID,97.4138,VALID,-0.0339617,VALID,20.3065,VALID,294,VALID,0.110263,
2003-11-14, 01:30:00,VALID,917.107,VALID,0,VALID,97.5257,VALID,-0.0849042,VALID,20.2998,VALID,294,VALID,0.145833,
2003-11-14, 01:31:00,VALID,917.104,VALID,0,VALID,97.7317,VALID,-0.0509425,VALID,20.3162,VALID,291,VALID,0.143164,
2003-11-14, 01:32:00,VALID,917.1,VALID,0,VALID,97.8958,VALID,-0.0849042,VALID,20.3062,VALID,281,VALID,0.362695,
2003-11-14, 01:33:01,VALID,917.101,VALID,0,VALID,98.0598,VALID,-0.0509425,VALID,20.31,VALID,273,VALID,0.238009,
2003-11-14, 01:34:00,VALID,917.09,VALID,0,VALID,98.2391,VALID,-0.101885,VALID,20.2836,VALID,273,VALID,0.03125,
2003-11-14, 01:35:00,VALID,917.072,VALID,0,VALID,98.4133,VALID,-0.0339617,VALID,20.2866,VALID,273,VALID,0,
2003-11-14, 01:36:01,VALID,917.064,VALID,0,VALID,98.487,VALID,0.0679233,VALID,20.292,VALID,273,VALID,0,
2003-11-14, 01:37:00,VALID,917.062,VALID,0,VALID,98.5443,VALID,0.0849042,VALID,20.289,VALID,273,VALID,0,
2003-11-14, 01:38:01,VALID,917.049,VALID,0,VALID,98.6015,VALID,0,VALID,20.2888,VALID,314,VALID,0.333519,
2003-11-14, 01:39:00,VALID,917.053,VALID,0,VALID,98.6167,VALID,0.0509425,VALID,20.292,VALID,343,VALID,0.304306,
2003-11-14, 01:40:00,VALID,917.047,VALID,0,VALID,98.6816,VALID,0.0339617,VALID,20.2888,VALID,352,VALID,0.238917,
2003-11-14, 01:41:00,VALID,917.048,VALID,0,VALID,98.7465,VALID,0.0339617,VALID,20.2953,VALID,12,VALID,0.410937,
2003-11-14, 01:42:00,VALID,917.041,VALID,0,VALID,98.7897,VALID,0.0339617,VALID,20.3181,VALID,16,VALID,0.325648,
2003-11-14, 01:43:01,VALID,917.053,VALID,0,VALID,98.6841,VALID,0.0509425,VALID,20.2985,VALID,16,VALID,0.554865,
2003-11-14, 01:44:01,VALID,917.061,VALID,0,VALID,98.6727,VALID,0.0509425,VALID,20.2955,VALID,18,VALID,0.65625,
2003-11-14, 01:45:00,VALID,917.067,VALID,0,VALID,98.3167,VALID,0.0679233,VALID,20.25,VALID,12,VALID,0.934837,
2003-11-14, 01:46:00,VALID,917.08,VALID,0,VALID,97.953,VALID,0.0509425,VALID,20.2123,VALID,6,VALID,0.870722,
2003-11-14, 01:47:00,VALID,917.084,VALID,0,VALID,97.6732,VALID,0.0509425,VALID,20.1628,VALID,355,VALID,0.795387,
2003-11-14, 01:48:01,VALID,917.094,VALID,0,VALID,97.5244,VALID,0.0339617,VALID,20.1303,VALID,356,VALID,0.597656,
2003-11-14, 01:49:00,VALID,917.098,VALID,0,VALID,97.5054,VALID,0.0679233,VALID,20.14,VALID,10,VALID,0.803299,
2003-11-14, 01:50:01,VALID,917.097,VALID,0,VALID,97.3604,VALID,0.0339617,VALID,20.1211,VALID,342,VALID,0.772727,
2003-11-14, 01:51:01,VALID,917.096,VALID,0,VALID,97.0832,VALID,-0.0169808,VALID,20.1,VALID,340,VALID,0.897166,
2003-11-14, 01:52:00,VALID,917.091,VALID,0,VALID,97.1061,VALID,-0.0509425,VALID,20.064,VALID,333,VALID,0.557927,
2003-11-14, 01:53:00,VALID,917.075,VALID,0,VALID,97.2434,VALID,-0.0679233,VALID,20.0672,VALID,343,VALID,0.405362,
2003-11-14, 01:54:01,VALID,917.057,VALID,0,VALID,97.396,VALID,-0.0509425,VALID,20.0806,VALID,1,VALID,0.384487,
2003-11-14, 01:55:01,VALID,917.049,VALID,0,VALID,97.4291,VALID,-0.0169808,VALID,20.0965,VALID,2,VALID,0.141006,
2003-11-14, 01:56:01,VALID,917.043,VALID,0,VALID,97.4634,VALID,-0.0339617,VALID,20.1097,VALID,2,VALID,0,
2003-11-14, 01:57:00,VALID,917.021,VALID,0,VALID,97.4952,VALID,-0.0509425,VALID,20.1127,VALID,2,VALID,0,
2003-11-14, 01:58:00,VALID,917.01,VALID,0,VALID,97.5689,VALID,-0.0679233,VALID,20.1186,VALID,2,VALID,0,
2003-11-14, 01:59:00,VALID,917.008,VALID,0,VALID,97.5918,VALID,-0.0509425,VALID,20.142,VALID,2,VALID,0.0324929,
2003-11-14, 02:00:00,VALID,917.004,VALID,0,VALID,97.4761,VALID,-0.0849042,VALID,20.1422,VALID,2,VALID,0.104725,
2003-11-14, 02:01:00,VALID,917.014,VALID,0,VALID,97.4151,VALID,-0.0679233,VALID,20.1261,VALID,1,VALID,0.38681,
2003-11-14, 02:02:01,VALID,917.004,VALID,0,VALID,97.588,VALID,-0.0849042,VALID,20.1194,VALID,1,VALID,0.308966,
2003-11-14, 02:03:01,VALID,916.983,VALID,0,VALID,97.8042,VALID,-0.0339617,VALID,20.1189,VALID,360,VALID,0.242773,
2003-11-14, 02:04:01,VALID,916.957,VALID,0,VALID,97.9593,VALID,-0.0679233,VALID,20.1358,VALID,360,VALID,0.0126953,
2003-11-14, 02:05:01,VALID,916.934,VALID,0,VALID,98.1793,VALID,-0.0169808,VALID,20.1474,VALID,360,VALID,0.229759,
2003-11-14, 02:06:00,VALID,916.904,VALID,0,VALID,98.281,VALID,0.0169808,VALID,20.1666,VALID,360,VALID,0.25279,
2003-11-14, 02:07:01,VALID,916.882,VALID,0,VALID,98.2582,VALID,0.0169808,VALID,20.1596,VALID,360,VALID,0.24673,
2003-11-14, 02:08:01,VALID,916.882,VALID,0,VALID,98.0547,VALID,0.0169808,VALID,20.1412,VALID,12,VALID,0.533507,
2003-11-14, 02:09:01,VALID,916.867,VALID,0,VALID,98.0382,VALID,0,VALID,20.1313,VALID,9,VALID,0.184832,
2003-11-14, 02:10:01,VALID,916.862,VALID,0,VALID,98.2505,VALID,0,VALID,20.1541,VALID,304,VALID,0.307355,
2003-11-14, 02:11:01,VALID,916.847,VALID,0,VALID,98.4018,VALID,0.0339617,VALID,20.1469,VALID,304,VALID,0,
2003-11-14, 02:12:01,VALID,916.848,VALID,0,VALID,98.5125,VALID,0.0169808,VALID,20.1636,VALID,304,VALID,0,
2003-11-14, 02:13:00,VALID,916.862,VALID,0,VALID,98.571,VALID,0.0169808,VALID,20.1566,VALID,304,VALID,0,
2003-11-14, 02:14:01,VALID,916.869,VALID,0,VALID,98.674,VALID,0.0169808,VALID,20.1765,VALID,304,VALID,0,
2003-11-14, 02:15:01,VALID,916.872,VALID,0,VALID,98.7439,VALID,0.0169808,VALID,20.176,VALID,352,VALID,0.33316,
2003-11-14, 02:16:01,VALID,916.88,VALID,0,VALID,98.6829,VALID,0.0169808,VALID,20.1795,VALID,20,VALID,0.129383,
2003-11-14, 02:17:00,VALID,916.883,VALID,0,VALID,98.6829,VALID,0.0339617,VALID,20.1763,VALID,20,VALID,0.0950218,
2003-11-14, 02:18:01,VALID,916.869,VALID,0,VALID,98.7299,VALID,0.0169808,VALID,20.1795,VALID,20,VALID,0,
2003-11-14, 02:19:01,VALID,916.838,VALID,0,VALID,98.7439,VALID,0,VALID,20.1795,VALID,20,VALID,0,
2003-11-14, 02:20:00,VALID,916.824,VALID,0,VALID,98.6638,VALID,-0.0339617,VALID,20.17,VALID,20,VALID,0,
2003-11-14, 02:21:01,VALID,916.8,VALID,0,VALID,98.6981,VALID,-0.0509425,VALID,20.1778,VALID,20,VALID,0.410342,
2003-11-14, 02:22:00,VALID,916.805,VALID,0,VALID,98.7236,VALID,-0.0679233,VALID,20.188,VALID,20,VALID,0.512429,
2003-11-14, 02:23:01,VALID,916.791,VALID,0,VALID,98.6015,VALID,-0.0849042,VALID,20.1708,VALID,17,VALID,0.746094,
2003-11-14, 02:24:00,VALID,916.789,VALID,0,VALID,98.2404,VALID,-0.101885,VALID,20.1358,VALID,26,VALID,0.925595,
2003-11-14, 02:25:01,VALID,916.785,VALID,0,VALID,97.7444,VALID,-0.0679233,VALID,20.1005,VALID,16,VALID,0.828325,
2003-11-14, 02:26:01,VALID,916.779,VALID,0,VALID,97.466,VALID,-0.0679233,VALID,20.0774,VALID,7,VALID,0.691406,
2003-11-14, 02:27:01,VALID,916.756,VALID,0,VALID,97.1506,VALID,-0.0679233,VALID,20.0908,VALID,2,VALID,0.514881,
2003-11-14, 02:28:01,VALID,916.757,VALID,0,VALID,96.7805,VALID,-0.0849042,VALID,20.0881,VALID,13,VALID,0.586868,
2003-11-14, 02:29:01,VALID,916.762,VALID,0,VALID,96.4105,VALID,-0.101885,VALID,20.0712,VALID,15,VALID,0.810826,
2003-11-14, 02:30:01,VALID,916.779,VALID,0,VALID,95.8803,VALID,-0.0679233,VALID,20.0615,VALID,6,VALID,0.701882,
2003-11-14, 02:31:00,VALID,916.781,VALID,0,VALID,95.8663,VALID,-0.101885,VALID,20.0878,VALID,7,VALID,0.741461,
2003-11-14, 02:32:01,VALID,916.792,VALID,0,VALID,95.734,VALID,-0.0849042,VALID,20.0873,VALID,5,VALID,0.649023,
2003-11-14, 02:33:01,VALID,916.796,VALID,0,VALID,95.7188,VALID,-0.0849042,VALID,20.107,VALID,18,VALID,0.602834,
2003-11-14, 02:34:01,VALID,916.812,VALID,0,VALID,95.5,VALID,-0.0679233,VALID,20.1201,VALID,360,VALID,0.710742,
2003-11-14, 02:35:01,VALID,916.814,VALID,0,VALID,95.1046,VALID,-0.101885,VALID,20.0973,VALID,356,VALID,0.867969,
2003-11-14, 02:36:01,VALID,916.821,VALID,0,VALID,94.9482,VALID,-0.101885,VALID,20.0968,VALID,353,VALID,0.501367,
2003-11-14, 02:37:01,VALID,916.82,VALID,0,VALID,94.8426,VALID,-0.0849042,VALID,20.1037,VALID,346,VALID,0.248224,
2003-11-14, 02:38:01,VALID,916.81,VALID,0,VALID,94.9889,VALID,-0.101885,VALID,20.1201,VALID,346,VALID,0.142624,
2003-11-14, 02:39:01,VALID,916.8,VALID,0,VALID,95.3169,VALID,-0.101885,VALID,20.1196,VALID,346,VALID,0.076527,
2003-11-14, 02:40:01,VALID,916.794,VALID,0,VALID,95.7086,VALID,-0.118866,VALID,20.1363,VALID,346,VALID,0.133594,
2003-11-14, 02:41:01,VALID,916.777,VALID,0,VALID,95.9006,VALID,-0.0849042,VALID,20.1261,VALID,346,VALID,0.135901,
2003-11-14, 02:42:01,VALID,916.772,VALID,0,VALID,96.1091,VALID,-0.101885,VALID,20.1229,VALID,346,VALID,0.0182884,
2003-11-14, 02:43:01,VALID,916.783,VALID,0,VALID,96.3139,VALID,-0.101885,VALID,20.1261,VALID,346,VALID,0.0526843,
2003-11-14, 02:44:01,VALID,916.809,VALID,0,VALID,96.3317,VALID,-0.101885,VALID,20.1234,VALID,346,VALID,0,
2003-11-14, 02:45:01,VALID,916.81,VALID,0,VALID,96.2541,VALID,-0.101885,VALID,20.1002,VALID,346,VALID,0.0227431,
2003-11-14, 02:46:01,VALID,916.802,VALID,0,VALID,96.1727,VALID,-0.101885,VALID,20.0876,VALID,346,VALID,0.0988991,
2003-11-14, 02:47:01,VALID,916.803,VALID,0,VALID,96.2198,VALID,-0.0849042,VALID,20.0873,VALID,346,VALID,0.000887784,
2003-11-14, 02:48:00,VALID,916.794,VALID,0,VALID,96.1028,VALID,-0.118866,VALID,20.0943,VALID,346,VALID,0,
2003-11-14, 02:49:00,VALID,916.796,VALID,0,VALID,96.1702,VALID,-0.101885,VALID,20.0975,VALID,346,VALID,0,
2003-11-14, 02:50:00,VALID,916.792,VALID,0,VALID,96.2821,VALID,-0.0849042,VALID,20.1201,VALID,346,VALID,0,
2003-11-14, 02:51:00,VALID,916.787,VALID,0,VALID,96.427,VALID,-0.101885,VALID,20.1234,VALID,350,VALID,0.155342,
2003-11-14, 02:52:00,VALID,916.78,VALID,0,VALID,96.455,VALID,-0.0849042,VALID,20.1326,VALID,4,VALID,0.146984,
2003-11-14, 02:53:00,VALID,916.773,VALID,0,VALID,96.2694,VALID,-0.0679233,VALID,20.1201,VALID,4,VALID,0.304102,
2003-11-14, 02:54:00,VALID,916.79,VALID,0,VALID,96.1448,VALID,-0.101885,VALID,20.101,VALID,4,VALID,0.192894,
2003-11-14, 02:55:00,VALID,916.806,VALID,0,VALID,96.0341,VALID,-0.0849042,VALID,20.0682,VALID,6,VALID,0.214658,
2003-11-14, 02:56:00,VALID,916.823,VALID,0,VALID,96.0354,VALID,-0.0679233,VALID,20.0655,VALID,6,VALID,0,
2003-11-14, 02:57:00,VALID,916.841,VALID,0,VALID,95.9298,VALID,-0.0849042,VALID,20.0652,VALID,6,VALID,0.0474466,
2003-11-14, 02:58:00,VALID,916.851,VALID,0,VALID,95.7734,VALID,-0.0679233,VALID,20.0617,VALID,6,VALID,0.377668,
2003-11-14, 02:59:00,VALID,916.853,VALID,0,VALID,95.4161,VALID,-0.101885,VALID,20.0747,VALID,13,VALID,0.972747,
2003-11-14, 03:00:00,VALID,916.854,VALID,0,VALID,95.2623,VALID,-0.0849042,VALID,20.0747,VALID,13,VALID,0.981889,
2003-11-14, 03:01:00,VALID,916.836,VALID,0,VALID,95.0588,VALID,-0.0509425,VALID,20.0868,VALID,10,VALID,0.898819,
2003-11-14, 03:02:00,VALID,916.803,VALID,0,VALID,94.8477,VALID,-0.101885,VALID,20.1102,VALID,22,VALID,1.35324,
2003-11-14, 03:03:00,VALID,916.789,VALID,0,VALID,94.732,VALID,-0.0849042,VALID,20.1492,VALID,8,VALID,1.07592,
2003-11-14, 03:04:00,VALID,916.774,VALID,0,VALID,94.6875,VALID,-0.0849042,VALID,20.1484,VALID,355,VALID,1.10029,
2003-11-14, 03:05:00,VALID,916.793,VALID,0,VALID,94.5743,VALID,-0.0509425,VALID,20.1452,VALID,320,VALID,0.540923,
2003-11-14, 03:06:00,VALID,916.804,VALID,0,VALID,94.5591,VALID,0,VALID,20.1348,VALID,294,VALID,0.590843,
2003-11-14, 03:07:00,VALID,916.814,VALID,0,VALID,94.5006,VALID,-0.0169808,VALID,20.1221,VALID,297,VALID,0.472743,
2003-11-14, 03:08:00,VALID,916.815,VALID,0,VALID,94.6404,VALID,0,VALID,20.1122,VALID,303,VALID,0.224085,
2003-11-14, 03:09:00,VALID,916.817,VALID,0,VALID,94.9253,VALID,-0.0169808,VALID,20.1117,VALID,344,VALID,0.348323,
2003-11-14, 03:10:00,VALID,916.813,VALID,0,VALID,95.1147,VALID,0,VALID,20.1415,VALID,348,VALID,0.122768,
2003-11-14, 03:11:00,VALID,916.802,VALID,0,VALID,95.191,VALID,0,VALID,20.1609,VALID,348,VALID,0.0644531,
2003-11-14, 03:12:00,VALID,916.792,VALID,0,VALID,95.2457,VALID,0.0169808,VALID,20.1601,VALID,348,VALID,0.00566406,
2003-11-14, 03:13:00,VALID,916.793,VALID,0,VALID,95.2432,VALID,0,VALID,20.1695,VALID,348,VALID,0.230291,
2003-11-14, 03:14:00,VALID,916.794,VALID,0,VALID,95.1173,VALID,0,VALID,20.1574,VALID,348,VALID,0.212573,
2003-11-14, 03:15:00,VALID,916.803,VALID,0,VALID,95.1809,VALID,0.0169808,VALID,20.1504,VALID,348,VALID,0.0807884,
2003-11-14, 03:16:00,VALID,916.806,VALID,0,VALID,95.2928,VALID,0.0169808,VALID,20.1308,VALID,348,VALID,0.00981105,
2003-11-14, 03:17:00,VALID,916.831,VALID,0,VALID,95.2584,VALID,0.0509425,VALID,20.1315,VALID,348,VALID,0,
2003-11-14, 03:18:00,VALID,916.848,VALID,0,VALID,95.2762,VALID,0.0169808,VALID,20.1275,VALID,348,VALID,0.0591264,
2003-11-14, 03:19:00,VALID,916.87,VALID,0,VALID,95.4034,VALID,0.0339617,VALID,20.1472,VALID,341,VALID,0.0556402,
2003-11-14, 03:20:00,VALID,916.88,VALID,0,VALID,95.3627,VALID,0,VALID,20.1703,VALID,8,VALID,0.141959,
2003-11-14, 03:21:00,VALID,916.9,VALID,0,VALID,95.1809,VALID,0,VALID,20.1768,VALID,44,VALID,0.0548735,
2003-11-14, 03:22:00,VALID,916.912,VALID,0,VALID,95.1491,VALID,0.0169808,VALID,20.1857,VALID,44,VALID,0.138529,
2003-11-14, 03:23:00,VALID,916.922,VALID,0,VALID,95.13,VALID,0.0339617,VALID,20.2051,VALID,44,VALID,0.00285823,
2003-11-14, 03:24:00,VALID,916.916,VALID,0,VALID,95.0385,VALID,0.0169808,VALID,20.2021,VALID,44,VALID,0.0137649,
2003-11-14, 03:25:00,VALID,916.92,VALID,0,VALID,94.7841,VALID,0,VALID,20.2115,VALID,30,VALID,0.217076,
2003-11-14, 03:26:00,VALID,916.912,VALID,0,VALID,94.5794,VALID,0.0339617,VALID,20.2414,VALID,27,VALID,0.096946,
2003-11-14, 03:27:00,VALID,916.925,VALID,0,VALID,94.5527,VALID,0.0169808,VALID,20.2672,VALID,27,VALID,0.168527,
2003-11-14, 03:28:00,VALID,916.921,VALID,0,VALID,94.6837,VALID,0,VALID,20.2759,VALID,27,VALID,0.21189,
2003-11-14, 03:29:00,VALID,916.909,VALID,0,VALID,95.0028,VALID,0.0679233,VALID,20.2953,VALID,27,VALID,0.108994,
2003-11-14, 03:30:00,VALID,916.909,VALID,0,VALID,95.1147,VALID,0.0169808,VALID,20.2918,VALID,27,VALID,0.147461,
2003-11-14, 03:31:00,VALID,916.895,VALID,0,VALID,94.8859,VALID,0,VALID,20.2893,VALID,27,VALID,0.252204,
2003-11-14, 03:32:00,VALID,916.882,VALID,0,VALID,95.041,VALID,0.0169808,VALID,20.2896,VALID,27,VALID,0.00408381,
2003-11-14, 03:33:00,VALID,916.868,VALID,0,VALID,95.0944,VALID,0.0169808,VALID,20.2861,VALID,27,VALID,0,
2003-11-14, 03:34:00,VALID,916.856,VALID,0,VALID,95.1376,VALID,0,VALID,20.2804,VALID,27,VALID,0.130451,
2003-11-14, 03:35:00,VALID,916.824,VALID,0,VALID,95.2038,VALID,-0.0339617,VALID,20.2578,VALID,27,VALID,0.227307,
2003-11-14, 03:36:00,VALID,916.823,VALID,0,VALID,95.3983,VALID,-0.101885,VALID,20.2526,VALID,27,VALID,0.393864,